Wind_Speed
16 16 16 15 15 15 14 13 13 12 11 10 10 10 9 8 7 8 7 6 6 6 5 5 5 5 5 5 6 6 6 7 7 7 8 8 9 9 10 11 12 13 13 14 15 16 17 18 19
17 17 17 16 16 15 13 13 13 13 12 11 11 11 9 8 8 8 7 6 6 6 5 5 5 5 5 5 5 6 7 7 7 8 8 9 9 10 11 12 12 13 14 15 15 16 17 18 18
18 18 18 17 16 15 14 14 14 13 13 12 12 11 10 9 8 8 7 6 6 6 5 5 5 5 5 5 6 6 7 7 8 8 9 9 10 10 11 12 12 13 15 16 16 17 17 18 18
19 19 19 18 17 16 16 16 15 14 13 13 13 12 11 10 9 8 8 7 6 6 6 5 5 5 6 6 6 7 7 8 8 9 9 10 10 11 12 12 13 14 15 16 17 17 18 18 19
21 21 20 19 18 17 16 16 16 15 14 14 14 13 12 12 10 9 9 8 7 7 6 6 6 6 6 7 7 8 8 9 9 9 10 10 11 12 13 14 14 15 16 17 17 18 18 18 19
22 22 22 21 19 18 17 17 17 16 15 15 15 14 14 13 12 11 10 10 9 8 7 7 7 7 7 8 8 8 9 9 9 10 10 11 12 13 14 15 15 16 16 17 17 18 18 19 19
24 23 23 22 20 20 19 18 17 16 16 15 15 15 15 14 13 12 11 11 10 9 8 8 8 8 8 8 9 9 9 9 9 10 11 12 13 14 14 15 15 16 16 17 18 18 18 19 19
26 25 24 23 22 21 20 19 18 18 17 16 16 15 15 14 13 12 12 11 11 10 10 9 9 9 9 9 9 10 10 10 10 11 12 13 13 14 15 15 15 16 17 18 18 18 19 19 19
28 28 26 24 23 22 22 21 20 19 18 18 17 16 15 15 14 13 13 12 12 11 11 10 10 10 10 10 10 10 11 11 11 12 12 13 13 14 15 16 16 17 18 18 18 19 19 20 20
30 29 26 26 25 24 24 23 22 22 21 20 18 17 17 16 16 15 14 13 13 13 13 12 12 12 11 11 11 11 11 12 12 13 13 13 14 15 15 16 17 18 18 19 19 19 20 20 21
32 30 29 29 28 27 26 25 24 24 23 21 19 19 18 18 18 17 16 15 14 14 14 14 13 13 13 12 12 12 12 13 13 14 14 15 15 16 16 17 18 18 19 19 20 20 20 21 21
34 32 32 31 30 29 28 27 27 26 25 24 22 21 20 20 19 19 17 16 16 16 16 15 15 14 14 14 14 14 14 14 14 15 15 16 17 17 17 18 18 19 19 20 21 21 21 22 22
37 35 34 33 32 31 31 30 29 28 27 26 24 23 22 21 20 20 19 18 17 17 17 16 16 16 15 15 15 15 15 16 16 16 17 17 18 18 18 19 19 20 20 21 21 22 22 22 23
38 38 37 36 35 33 33 33 31 29 29 28 26 24 23 23 22 21 21 19 18 18 18 18 18 17 17 17 17 17 17 17 17 18 18 18 19 19 19 20 20 21 21 22 22 22 22 23 24
40 40 40 38 37 35 36 35 32 31 32 30 28 27 26 25 24 23 22 21 20 20 20 20 20 19 19 19 18 19 19 19 19 19 20 20 20 21 21 22 22 22 23 23 23 23 24 24 24
42 42 42 40 39 38 39 36 34 34 34 32 31 29 28 27 26 25 24 23 22 22 22 22 22 21 21 21 20 20 20 21 21 21 22 22 22 22 23 23 23 23 24 24 24 24 25 25 25
43 43 42 41 41 41 42 38 36 37 36 34 33 31 30 29 28 27 26 25 24 24 24 23 23 23 23 22 22 22 22 22 23 23 24 24 24 24 24 25 25 25 25 25 26 26 26 26 26
43 42 41 42 42 43 44 41 38 39 38 37 35 33 32 31 30 30 29 28 27 26 26 25 25 25 25 25 24 24 24 24 24 24 25 25 25 25 26 26 26 26 26 27 27 27 27 27 28
42 42 42 42 43 45 45 43 41 41 41 39 38 36 35 33 33 32 31 30 29 29 28 28 27 27 27 27 27 26 26 25 25 25 26 26 26 26 27 27 27 27 27 28 28 28 28 29 29
42 43 42 42 44 46 47 45 42 43 43 42 41 40 37 36 35 34 34 33 32 31 30 30 29 29 29 29 28 28 27 27 27 27 27 27 27 28 28 28 28 28 29 29 29 30 30 30 30
44 43 43 43 43 46 48 47 44 43 44 43 42 41 40 38 37 36 36 35 34 33 32 32 32 31 30 30 30 29 29 29 28 28 28 28 29 29 29 29 29 29 30 30 30 30 31 31 31
45 43 44 45 45 46 48 50 46 44 45 44 42 42 41 40 39 38 38 37 36 36 35 34 33 33 32 31 31 30 30 30 30 30 30 30 30 30 30 30 30 30 31 31 31 32 32 32 32
46 44 45 46 47 48 47 51 49 45 45 44 42 42 42 41 41 40 39 38 38 37 37 36 35 35 34 33 32 32 32 31 31 31 31 31 31 32 32 32 32 32 32 32 33 33 33 34 34
45 45 45 47 49 52 48 51 51 46 44 43 42 42 42 42 42 41 40 39 38 38 37 37 37 36 36 35 34 34 33 33 33 32 32 32 33 33 33 33 33 33 33 33 34 34 35 35 35
45 45 45 47 50 53 49 51 52 45 43 43 42 42 41 42 42 41 41 40 39 38 38 38 38 37 37 36 36 35 34 34 33 34 33 33 34 34 34 34 34 34 35 35 35 36 36 36 37
45 45 46 48 49 50 50 51 49 45 43 42 42 42 42 42 42 41 41 40 40 39 39 38 38 38 38 37 37 36 36 35 35 35 35 34 34 35 35 35 36 36 36 36 36 36 37 37 38
45 46 45 46 48 49 51 50 48 45 43 42 42 42 42 41 41 41 42 41 40 40 39 39 39 39 39 38 37 37 37 36 36 36 36 36 36 36 36 37 37 37 37 37 37 37 38 38 39
44 43 43 45 47 48 49 49 47 43 42 41 41 41 41 41 41 41 42 42 41 40 40 39 39 39 39 39 38 38 38 37 38 38 37 37 37 38 38 38 38 38 38 38 38 38 39 39 40
43 44 45 46 49 50 51 49 45 43 41 40 41 42 41 41 41 41 41 42 41 40 40 40 40 40 40 40 40 39 39 39 39 39 38 38 39 39 39 39 39 39 39 39 39 39 40 40 41
42 43 45 46 47 49 51 50 43 41 41 41 41 41 40 40 40 41 41 41 41 41 41 40 41 41 41 41 41 41 41 41 40 40 40 40 39 40 40 41 40 39 40 40 40 40 41 41 42
Wind_Direction
225 224 225 225 225 226 226 224 225 225 225 227 228 229 230 235 242 252 256 256 256 259 262 267 273 277 278 274 273 278 283 287 290 292 294 295 296 298 299 301 302 303 304 304 304 304 304 304 303
228 227 227 227 227 227 225 224 224 223 223 227 229 230 230 234 239 247 250 249 247 252 257 264 272 279 283 280 274 276 281 284 287 289 291 293 294 298 300 302 304 305 306 306 306 306 306 305 304
229 229 229 228 228 227 224 224 224 224 224 229 231 233 232 233 234 241 244 243 242 248 250 256 269 278 282 282 276 277 281 284 286 288 291 292 295 299 302 303 304 305 305 306 306 306 307 306 306
231 231 230 229 227 225 225 225 225 227 228 231 232 232 231 231 231 236 241 241 242 242 244 249 263 275 280 280 278 279 282 285 286 288 291 294 297 299 300 302 303 304 304 304 305 306 308 308 309
232 232 231 230 227 226 227 228 229 230 230 229 231 229 229 230 229 235 238 240 241 239 242 249 259 271 281 280 277 277 281 283 285 287 291 295 296 298 300 301 301 302 303 304 305 307 308 309 309
234 235 234 232 230 228 229 230 231 230 229 227 228 230 230 228 229 233 235 238 239 238 242 250 260 269 277 279 278 278 281 283 286 289 292 295 297 299 300 300 301 303 304 305 307 308 308 309 309
236 236 236 234 231 230 230 232 232 231 228 226 228 230 231 230 231 233 233 235 238 239 243 252 260 268 274 278 280 280 281 284 287 291 292 293 295 298 300 302 303 304 305 306 307 307 308 309 309
236 237 237 235 233 232 231 232 233 233 231 229 229 231 232 231 230 231 233 236 240 242 245 250 258 267 272 276 278 279 280 283 286 290 292 294 295 297 299 302 303 304 305 305 306 307 308 309 310
236 237 238 237 235 233 231 232 232 232 229 229 230 232 234 231 231 231 233 237 242 246 248 253 260 266 272 276 277 279 280 282 285 289 293 295 296 297 299 301 301 303 304 305 306 307 308 309 310
236 238 239 239 237 235 234 233 232 231 230 230 231 234 236 235 234 234 234 238 243 247 251 256 261 265 270 274 277 279 280 280 283 288 292 294 296 298 299 301 301 303 304 304 305 306 308 309 310
238 238 238 239 238 236 235 234 233 234 233 232 233 235 237 238 237 237 237 239 243 247 252 258 262 265 269 272 275 277 279 280 283 287 290 292 295 297 298 300 301 302 304 304 305 306 307 308 309
239 237 238 239 238 237 235 234 234 236 236 235 235 236 237 238 239 239 240 242 244 248 252 257 261 265 267 270 273 275 277 280 283 285 288 292 294 295 297 300 301 302 303 304 305 306 307 308 308
239 238 239 239 238 237 237 235 235 236 238 238 236 237 238 239 240 243 244 245 247 249 252 255 259 263 266 269 271 274 276 279 283 285 287 290 292 294 297 299 300 301 302 302 303 305 306 306 307
240 239 238 239 238 238 238 237 236 236 238 238 237 237 238 240 242 244 246 247 249 251 251 252 256 260 263 266 270 273 276 278 282 285 287 289 291 293 295 297 298 299 300 300 301 303 303 304 305
240 240 238 238 239 239 240 238 238 237 238 238 238 238 239 241 243 245 246 248 249 251 252 252 254 258 262 265 268 272 275 278 280 282 285 288 290 292 293 295 297 298 298 299 300 301 301 302 303
241 241 240 238 240 240 241 239 239 239 237 238 238 239 240 242 244 246 247 249 250 252 253 254 255 258 262 264 267 271 274 278 280 281 284 286 288 290 291 293 294 296 296 297 298 299 300 302 303
241 242 242 240 240 241 242 240 239 240 239 238 239 240 240 242 244 246 248 250 251 252 254 255 257 259 261 263 265 269 273 276 279 281 284 285 287 289 290 291 292 294 295 295 296 297 299 300 301
244 245 244 242 241 241 241 240 238 240 240 239 239 240 241 242 244 246 248 250 251 253 254 256 257 259 261 262 264 268 272 275 278 280 283 284 286 287 288 289 290 292 293 293 294 295 296 297 299
246 246 245 243 243 244 243 242 239 240 241 240 239 240 242 243 244 246 248 250 252 253 255 256 257 258 261 263 265 268 271 275 277 279 281 282 284 286 287 288 289 291 291 292 292 293 295 296 297
244 246 246 245 245 246 245 243 240 240 241 241 240 240 242 244 245 247 248 250 252 254 255 257 258 259 261 263 266 268 270 273 275 277 279 281 283 284 286 287 287 289 290 290 291 292 293 294 295
244 246 246 246 246 247 248 245 240 240 241 242 242 242 243 244 245 247 249 251 253 255 256 257 258 260 261 262 265 267 270 273 274 276 278 280 282 283 284 285 286 287 288 289 289 290 292 293 294
245 246 247 248 247 247 249 249 242 241 241 241 242 242 243 244 246 248 249 251 253 255 256 256 257 259 260 261 264 266 270 272 273 275 277 279 281 282 283 283 284 286 287 287 288 289 291 292 293
245 245 247 247 248 248 248 251 244 242 241 242 242 243 244 245 246 248 250 251 252 254 255 256 256 257 259 261 262 265 268 270 273 275 277 278 280 281 281 282 283 285 286 287 287 288 290 291 292
244 244 246 246 247 248 246 250 247 242 243 243 243 243 244 245 246 247 249 250 251 252 254 255 256 257 258 260 262 264 267 269 272 275 276 278 279 280 280 281 282 283 285 286 286 287 289 290 291
242 243 246 246 247 249 248 249 249 245 244 244 244 244 244 245 246 247 249 250 250 252 253 254 256 257 258 260 262 264 266 269 271 274 275 276 278 279 279 280 281 282 284 285 286 287 288 289 291
244 244 246 248 250 251 250 250 250 249 246 245 245 245 246 246 247 249 250 250 251 252 253 254 255 257 258 260 261 264 266 268 270 272 273 275 276 277 278 279 280 282 283 284 285 286 287 289 290
245 245 247 250 251 252 251 250 249 249 248 247 247 246 246 246 247 248 249 249 250 252 252 253 255 257 258 260 261 263 266 267 268 270 272 273 274 275 277 278 279 281 283 284 284 285 286 288 289
246 247 246 247 250 252 252 251 249 249 250 249 248 247 246 246 246 247 248 249 250 251 252 253 255 256 258 259 261 262 264 266 267 269 270 272 273 274 276 278 279 280 282 283 284 285 286 287 289
245 244 244 247 250 252 254 251 250 252 252 252 250 248 248 247 247 248 248 248 250 250 251 252 254 256 257 259 260 262 263 265 267 269 270 271 272 273 275 278 278 279 281 283 284 285 286 288 290
245 245 245 247 249 251 254 252 251 253 252 252 251 250 249 248 248 248 249 249 250 252 252 252 253 254 256 258 260 261 263 265 267 269 270 271 272 274 275 277 277 279 280 282 283 284 286 288 290
Height
5852 5853 5855 5857 5858 5859 5860 5861 5862 5863 5864 5865 5866 5866 5868 5869 5870 5871 5870 5869 5869 5869 5869 5868 5868 5868 5868 5868 5868 5868 5868 5868 5868 5868 5868 5867 5867 5866 5865 5864 5863 5862 5861 5860 5859 5858 5856 5855 5853
5849 5851 5853 5854 5855 5856 5858 5859 5859 5860 5862 5863 5863 5865 5866 5866 5867 5867 5866 5867 5867 5867 5867 5867 5867 5867 5867 5867 5867 5867 5867 5867 5867 5866 5866 5865 5865 5864 5863 5862 5861 5860 5859 5857 5856 5855 5853 5852 5850
5846 5848 5850 5851 5852 5854 5855 5856 5857 5858 5859 5860 5861 5862 5864 5864 5865 5865 5865 5865 5865 5865 5865 5865 5866 5866 5866 5866 5866 5865 5865 5865 5865 5865 5864 5864 5863 5862 5861 5860 5859 5858 5856 5855 5853 5852 5850 5849 5847
5843 5845 5846 5848 5849 5851 5852 5853 5854 5855 5856 5858 5859 5860 5861 5862 5863 5863 5863 5863 5863 5863 5864 5864 5864 5864 5864 5864 5864 5864 5864 5863 5863 5863 5862 5861 5861 5860 5859 5858 5857 5855 5854 5852 5851 5849 5847 5846 5844
5839 5841 5842 5844 5846 5848 5849 5849 5850 5852 5853 5855 5856 5857 5858 5860 5860 5860 5861 5861 5861 5861 5862 5862 5862 5862 5862 5862 5862 5862 5862 5861 5861 5861 5860 5859 5859 5858 5857 5855 5854 5852 5851 5849 5847 5846 5844 5842 5841
5835 5837 5838 5840 5843 5844 5845 5846 5847 5849 5850 5852 5853 5854 5856 5857 5858 5858 5858 5859 5859 5859 5860 5860 5860 5860 5860 5860 5860 5860 5860 5859 5859 5858 5857 5857 5856 5855 5854 5853 5851 5850 5848 5846 5844 5843 5841 5839 5837
5831 5832 5834 5836 5839 5840 5842 5842 5843 5845 5847 5849 5850 5851 5852 5854 5855 5856 5856 5856 5856 5857 5857 5858 5858 5858 5858 5858 5858 5858 5857 5857 5856 5856 5855 5854 5853 5852 5851 5850 5848 5846 5845 5843 5841 5839 5838 5836 5834
5825 5827 5829 5832 5834 5836 5838 5838 5839 5841 5843 5845 5846 5847 5849 5850 5851 5852 5853 5854 5854 5854 5855 5855 5856 5856 5856 5855 5855 5855 5855 5854 5854 5853 5852 5851 5850 5849 5848 5847 5845 5843 5842 5840 5838 5836 5834 5832 5830
5819 5822 5824 5827 5829 5832 5833 5834 5835 5836 5838 5840 5842 5844 5845 5846 5848 5849 5850 5851 5851 5852 5852 5853 5853 5853 5853 5853 5853 5852 5852 5852 5851 5850 5850 5848 5847 5846 5845 5844 5842 5840 5838 5836 5834 5832 5830 5828 5826
5813 5816 5820 5822 5824 5826 5827 5829 5830 5832 5834 5836 5838 5839 5841 5842 5844 5845 5847 5848 5848 5849 5849 5850 5850 5850 5850 5850 5850 5850 5849 5849 5848 5848 5847 5845 5844 5843 5842 5840 5838 5837 5835 5833 5831 5829 5827 5824 5822
5807 5810 5813 5815 5817 5819 5821 5823 5825 5827 5829 5832 5833 5835 5836 5837 5839 5841 5843 5844 5845 5845 5846 5846 5847 5847 5847 5847 5847 5847 5846 5846 5845 5844 5843 5842 5841 5840 5838 5837 5835 5833 5831 5829 5827 5825 5823 5820 5818
5800 5804 5805 5808 5809 5812 5814 5817 5819 5821 5825 5826 5828 5830 5832 5833 5835 5837 5838 5840 5841 5841 5842 5843 5843 5843 5843 5843 5843 5843 5843 5842 5842 5841 5840 5839 5837 5836 5834 5833 5831 5829 5827 5825 5823 5821 5819 5816 5814
5792 5796 5798 5800 5802 5805 5807 5810 5812 5816 5818 5820 5822 5825 5827 5828 5830 5832 5833 5835 5836 5837 5838 5839 5839 5839 5840 5840 5840 5839 5839 5839 5838 5837 5836 5835 5833 5832 5830 5828 5827 5825 5823 5821 5819 5816 5814 5812 5809
5785 5787 5790 5792 5795 5798 5800 5803 5805 5810 5812 5814 5816 5819 5821 5823 5825 5827 5828 5830 5831 5832 5833 5834 5835 5835 5836 5836 5836 5835 5835 5835 5834 5833 5832 5831 5829 5828 5826 5824 5822 5820 5818 5816 5814 5812 5809 5807 5804
5775 5778 5781 5784 5787 5790 5792 5795 5800 5803 5804 5807 5810 5813 5815 5817 5819 5821 5823 5824 5826 5827 5828 5830 5830 5831 5831 5831 5831 5831 5831 5830 5829 5828 5827 5826 5825 5823 5821 5820 5818 5816 5814 5811 5809 5807 5805 5802 5800
5766 5768 5772 5778 5780 5783 5784 5789 5794 5794 5797 5800 5803 5806 5808 5811 5813 5816 5817 5819 5820 5822 5823 5824 5825 5826 5826 5826 5826 5826 5826 5825 5824 5823 5822 5821 5820 5818 5816 5815 5813 5811 5809 5806 5804 5802 5799 5797 5794
5756 5760 5765 5771 5772 5774 5775 5781 5786 5786 5789 5793 5796 5799 5802 5805 5807 5809 5811 5813 5814 5816 5817 5818 5819 5820 5820 5820 5821 5821 5820 5820 5819 5818 5817 5816 5814 5813 5811 5809 5807 5805 5803 5801 5799 5796 5794 5791 5789
5750 5753 5757 5761 5764 5764 5766 5772 5777 5778 5781 5785 5789 5792 5795 5798 5801 5802 5804 5806 5808 5810 5811 5812 5812 5813 5814 5814 5814 5814 5814 5814 5813 5812 5811 5810 5809 5807 5805 5803 5802 5800 5798 5795 5793 5791 5788 5786 5783
5740 5743 5747 5751 5754 5754 5757 5762 5768 5769 5772 5777 5781 5784 5787 5790 5793 5795 5797 5799 5801 5803 5804 5805 5806 5806 5807 5807 5808 5808 5808 5807 5807 5806 5805 5804 5802 5801 5799 5797 5795 5793 5791 5789 5787 5785 5782 5779 5777
5730 5733 5738 5742 5744 5744 5747 5751 5757 5760 5763 5768 5772 5775 5779 5782 5785 5787 5789 5791 5793 5795 5796 5797 5799 5799 5800 5801 5801 5801 5801 5801 5800 5799 5798 5797 5796 5794 5793 5791 5789 5787 5785 5782 5780 5778 5775 5773 5770
5721 5725 5729 5732 5734 5734 5736 5740 5747 5751 5754 5759 5763 5767 5770 5774 5776 5779 5781 5783 5785 5787 5789 5790 5791 5792 5792 5793 5793 5793 5793 5793 5793 5792 5791 5790 5788 5787 5785 5784 5782 5780 5778 5775 5773 5771 5768 5766 5763
5712 5717 5719 5721 5723 5725 5727 5727 5738 5742 5745 5750 5755 5758 5761 5765 5768 5770 5772 5775 5776 5778 5780 5781 5783 5784 5784 5785 5785 5786 5786 5786 5785 5784 5784 5782 5781 5780 5778 5776 5774 5772 5770 5768 5766 5763 5761 5758 5755
5704 5707 5708 5710 5711 5714 5717 5717 5726 5732 5736 5741 5746 5749 5752 5755 5758 5761 5763 5766 5768 5769 5771 5773 5774 5775 5776 5777 5777 5778 5778 5778 5777 5777 5776 5774 5773 5772 5770 5768 5766 5764 5762 5760 5758 5755 5753 5750 5747
5693 5696 5697 5698 5699 5701 5708 5708 5712 5723 5728 5733 5736 5739 5742 5745 5748 5751 5753 5756 5758 5760 5761 5763 5765 5766 5767 5768 5769 5769 5770 5769 5769 5768 5767 5766 5765 5764 5762 5760 5758 5756 5754 5752 5749 5747 5744 5742 5739
5683 5685 5686 5686 5687 5691 5699 5697 5703 5715 5720 5723 5727 5729 5732 5735 5738 5740 5743 5746 5748 5750 5752 5754 5756 5757 5758 5759 5760 5761 5761 5760 5760 5760 5759 5758 5757 5755 5753 5752 5750 5748 5746 5744 5741 5739 5736 5733 5730
5673 5675 5677 5678 5680 5684 5686 5687 5698 5704 5709 5713 5716 5719 5722 5725 5728 5731 5733 5736 5738 5740 5742 5744 5746 5748 5749 5750 5751 5751 5751 5751 5751 5751 5750 5749 5748 5746 5744 5743 5741 5739 5737 5735 5732 5730 5727 5724 5721
5662 5664 5668 5669 5670 5671 5674 5680 5688 5693 5698 5702 5706 5709 5712 5715 5718 5721 5723 5726 5728 5730 5732 5734 5736 5738 5739 5740 5741 5741 5742 5742 5742 5741 5740 5740 5738 5737 5735 5734 5732 5730 5728 5725 5723 5721 5718 5715 5711
5652 5655 5657 5657 5658 5660 5664 5670 5678 5684 5688 5692 5695 5698 5701 5704 5707 5710 5712 5715 5717 5720 5722 5723 5725 5727 5728 5729 5730 5731 5731 5732 5732 5731 5731 5730 5729 5727 5726 5724 5722 5720 5718 5716 5713 5711 5708 5705 5702
5643 5645 5645 5647 5649 5651 5653 5663 5671 5675 5678 5682 5685 5687 5690 5693 5696 5699 5702 5704 5707 5709 5711 5713 5714 5716 5717 5719 5720 5720 5721 5721 5721 5721 5721 5720 5719 5717 5716 5714 5712 5711 5708 5706 5703 5701 5698 5695 5692
5631 5634 5636 5638 5640 5641 5643 5653 5662 5665 5667 5670 5672 5676 5679 5682 5685 5688 5690 5693 5695 5698 5700 5702 5704 5705 5707 5708 5709 5710 5710 5710 5711 5711 5710 5709 5708 5707 5705 5704 5702 5700 5698 5696 5693 5691 5688 5685 5681